Datos meteoreol�gicos.
Lugar de muestreo: Estaci�n de Fotobiolog�a Playa Uni�n (EFPU) en Playa Uni�n, Chubut, Argentina (-43.311263, -65.040969).
Datos aportados al Sistema Nacional de Datos del Mar.
Fecha,Temperatura_Max,Humedad_Max,Vel.Viento_Km/h_Max,Temperatura_Min,Humedad_Min,Vel.Viento_Km/h_Min,Temperatura_Prom,Humedad_Prom,Vel.Viento_Km/h_Prom,Direcci�n_Viento
2011-06-30,19.1,51.0,14.5,-0.6,25.0,0.0,5.3,37.6,6.3,WSW
2011-07-01,7.8,66.0,10.8,-1.9,46.0,0.8,2.1,56.5,5.0,WSW
2011-07-02,7.2,76.0,15.6,1.2,51.0,2.4,4.0,64.8,6.2,WSW
2011-07-03,10.7,76.0,5.7,-2.3,38.0,0.7,3.9,56.8,3.1,WNW
2011-07-04,7.8,79.0,10.3,-0.8,56.0,1.1,2.1,64.7,3.7,W
2011-07-05,8.9,80.0,5.9,-2.5,34.0,0.5,3.7,57.9,2.9,WNW
2011-07-06,15.8,64.0,10.3,2.5,30.0,0.1,8.7,46.2,3.9,WNW
2011-07-07,21.4,66.0,10.9,6.2,38.0,0.0,13.6,52.3,3.9,WNW
2011-07-08,20.0,66.0,7.5,9.4,39.0,0.0,14.2,53.9,2.5,NNW
2011-07-09,17.6,72.0,13.1,7.1,37.0,0.0,13.1,48.4,5.0,WNW
2011-07-10,11.9,81.0,6.8,2.9,43.0,0.0,7.9,59.7,2.5,WNW
2011-07-11,19.2,85.0,13.9,7.6,31.0,0.0,13.3,59.1,3.0,NNW
2011-07-12,17.7,48.0,14.5,9.0,31.0,0.2,13.2,38.8,5.4,WNW
2011-07-13,17.9,59.0,10.3,6.0,31.0,0.2,13.2,43.2,4.3,NNW
2011-07-14,15.8,76.0,10.3,6.0,46.0,0.0,12.1,58.7,3.0,NNW
2011-07-15,11.0,68.0,13.2,1.6,46.0,0.0,6.9,57.7,3.8,WNW
2011-07-16,11.0,85.0,9.6,0.9,39.0,0.6,5.3,56.7,3.7,WNW
2011-07-17,11.3,92.0,10.3,0.5,57.0,0.3,5.2,74.5,3.6,WSW
2011-07-18,10.2,84.0,5.9,-2.1,38.0,1.0,3.6,65.9,2.8,NNW
2011-07-19,9.0,80.0,5.1,-1.9,43.0,0.0,3.6,62.3,2.1,N
2011-07-20,15.9,72.0,10.3,-1.7,32.0,0.8,6.7,53.8,3.0,NNW
2011-07-21,18.0,56.0,13.8,10.0,36.0,0.9,13.4,45.0,5.0,N
2011-07-22,17.6,69.0,7.1,4.8,37.0,0.0,11.6,52.6,2.8,NNW
2011-07-23,20.4,56.0,12.4,10.0,21.0,0.0,13.7,39.0,3.5,NW
2011-07-24,17.2,65.0,13.3,10.8,41.0,1.1,12.3,58.6,6.5,NNE
2011-07-25,17.3,52.0,13.1,9.0,30.0,0.5,12.2,42.3,3.9,WNW
2011-07-26,15.1,77.0,12.2,5.9,37.0,0.0,9.0,57.3,3.6,W
2011-07-27,16.5,77.0,14.7,6.3,33.0,0.0,11.0,50.8,4.3,N
2011-07-28,14.7,85.0,15.9,1.0,46.0,0.0,6.1,68.6,5.7,SSW
2011-07-29,6.6,88.0,15.6,0.3,70.0,1.3,4.1,79.7,5.3,WSW
2011-07-30,7.6,86.0,7.0,-3.6,38.0,0.0,2.0,65.2,2.1,NW
2011-07-31,12.3,80.0,5.5,-4.3,28.0,0.0,4.0,53.7,1.7,NW
2011-08-01,15.0,52.0,11.2,5.0,30.0,0.0,10.0,39.0,3.8,WNW
2011-08-02,14.3,70.0,11.6,6.0,34.0,0.5,10.0,50.9,4.6,WSW
2011-08-03,8.8,85.0,12.1,2.0,56.0,0.0,6.0,73.3,3.9,SW
2011-08-04,11.1,91.0,15.2,0.5,34.0,0.5,5.6,61.9,5.1,N
2011-08-05,14.0,70.0,10.9,2.6,36.0,0.8,8.2,52.8,3.6,NW
2011-08-06,13.2,82.0,9.3,2.8,28.0,0.0,7.5,61.1,3.3,ESE
2011-08-07,11.9,87.0,8.6,4.6,71.0,0.0,7.4,79.4,3.1,E
2011-08-08,13.4,92.0,15.5,7.4,72.0,2.1,10.2,85.4,6.9,NE
2011-08-09,13.4,88.0,17.6,10.7,79.0,0.0,12.0,83.3,9.9,NNE
2011-08-10,17.9,82.0,8.1,6.7,31.0,0.3,13.4,55.6,3.5,N
2011-08-11,18.0,69.0,11.6,6.9,30.0,0.4,13.4,47.3,3.6,NNW
2011-08-12,15.5,62.0,16.7,7.3,28.0,0.0,11.4,44.1,6.2,WNW
2011-08-13,16.8,86.0,6.7,3.5,41.0,0.3,7.9,65.6,3.2,WNW
2011-08-14,15.0,85.0,9.3,1.3,25.0,0.0,8.8,52.7,2.6,NNW
2011-08-15,21.2,82.0,4.7,1.0,32.0,0.0,7.9,60.4,2.2,W
2011-08-16,16.3,82.0,7.4,1.5,48.0,0.0,7.5,72.0,2.7,ENE
2011-08-17,13.1,87.0,9.1,3.4,39.0,0.0,8.8,61.6,2.9,NW
2011-08-18,9.4,90.0,14.1,0.9,55.0,0.4,5.5,70.6,4.8,SSW
2011-08-19,11.2,73.0,13.3,1.6,36.0,2.1,4.3,60.8,4.9,WSW
2011-08-21,15.4,80.0,8.4,-2.0,40.0,0.0,8.5,59.8,3.0,NNE
2011-08-22,17.3,57.0,14.2,3.0,25.0,0.3,9.7,44.3,5.2,N
2011-08-23,14.7,80.0,6.6,6.7,39.0,0.0,10.1,57.4,2.3,WNW
2011-08-24,11.3,84.0,10.1,2.8,48.0,0.0,8.3,67.5,3.8,SSW
2011-08-25,11.8,82.0,14.4,-2.0,33.0,0.5,6.0,59.8,5.3,NNE
2011-08-27,18.4,46.0,14.2,7.9,24.0,0.0,15.1,30.5,5.9,WNW
2011-08-28,17.9,53.0,10.0,2.0,25.0,0.0,10.6,39.4,2.7,NW
2011-08-29,18.2,52.0,16.8,8.3,30.0,0.8,12.6,39.2,6.2,N
2011-08-30,12.3,82.0,14.1,3.2,34.0,0.4,7.7,62.1,5.9,SW
2011-08-31,15.0,86.0,13.4,0.2,50.0,0.2,6.8,73.8,4.6,NE
2011-09-01,18.3,81.0,23.7,8.0,35.0,3.5,12.8,58.2,11.2,NNE
2011-09-02,22.3,64.0,11.9,8.4,34.0,0.0,13.8,50.7,3.8,N
2011-09-03,17.8,55.0,12.9,9.6,17.0,0.6,14.0,34.8,4.9,WNW
2011-09-04,15.6,45.0,13.4,6.4,22.0,0.8,11.3,33.0,5.0,NW
2011-09-05,12.2,58.0,17.8,3.3,23.0,2.4,8.5,36.8,8.1,W
2011-09-06,16.2,59.0,11.3,0.8,27.0,0.2,9.6,38.1,4.1,WNW
2011-09-07,19.2,67.0,10.9,6.0,26.0,0.0,12.0,40.9,4.3,WNW
2011-09-08,20.1,68.0,12.9,6.1,18.0,0.0,12.3,43.8,4.2,WNW
2011-09-09,15.6,78.0,7.8,3.5,25.0,0.1,9.0,48.8,3.4,WNW
2011-09-10,16.3,81.0,11.5,6.1,24.0,0.6,10.2,58.1,4.3,WSW
2011-09-11,22.0,61.0,15.7,8.3,19.0,0.5,15.1,34.1,5.3,WNW
2011-09-12,18.5,51.0,21.4,8.7,15.0,0.1,13.1,32.0,7.3,WNW
2011-09-13,18.0,73.0,8.0,5.8,28.0,0.0,10.3,45.3,3.7,ENE
2011-09-14,14.0,62.0,8.0,8.2,31.0,0.0,9.5,51.9,2.6,N
2011-09-17,19.1,57.0,10.9,6.6,24.0,0.8,13.2,40.2,4.5,ENE
2011-09-18,25.5,64.0,10.2,6.9,7.0,0.8,15.5,32.8,4.2,N
2011-09-19,20.0,83.0,11.4,8.9,25.0,0.0,12.5,49.1,4.1,NW
2011-09-20,21.5,85.0,11.6,6.8,30.0,0.0,12.9,61.6,3.6,N
2011-09-21,13.5,83.0,14.1,6.6,50.0,0.5,10.1,65.6,6.5,SSW
2011-09-22,10.7,68.0,12.8,6.1,40.0,1.4,7.8,54.4,6.4,SSE
2011-09-23,19.7,67.0,17.0,6.4,31.0,0.9,12.4,50.0,7.9,N
2011-09-24,24.4,51.0,12.4,13.2,22.0,0.0,18.9,34.4,4.2,N
2011-09-25,21.9,55.0,10.3,9.0,16.0,0.0,15.7,31.4,3.5,WNW
2011-09-26,15.4,78.0,38.2,8.5,28.0,2.2,12.0,45.2,17.0,W
2011-09-27,17.8,81.0,56.9,9.2,41.0,0.0,12.3,69.8,21.9,NE
2011-09-28,18.6,88.0,27.4,9.2,55.0,0.0,12.4,76.5,8.8,WNW
2011-09-29,20.6,83.0,37.1,6.8,30.0,0.0,11.6,66.0,9.9,WNW
2011-09-30,20.0,87.0,29.2,4.4,33.0,0.0,10.6,69.5,12.4,E
2011-10-01,11.0,91.0,31.0,8.7,68.0,5.0,9.9,84.3,16.8,ESE
2011-10-02,12.1,91.0,25.6,7.0,66.0,3.6,9.4,78.8,13.4,E
2011-10-03,16.0,91.0,61.6,5.5,50.0,2.2,10.5,72.5,26.0,N
2011-10-04,23.7,73.0,58.3,9.4,28.0,0.7,15.0,56.1,15.3,N
2011-10-05,22.7,84.0,33.5,11.1,32.0,0.4,15.0,58.9,10.1,WNW
2011-10-06,11.7,92.0,47.2,9.5,81.0,6.5,10.3,88.4,27.8,E
2011-10-07,13.2,94.0,27.0,9.8,81.0,4.7,10.7,91.3,14.9,ESE
2011-10-08,11.0,95.0,36.0,9.6,90.0,10.8,10.3,93.3,22.3,E
2011-10-09,16.8,95.0,46.4,9.9,72.0,3.6,12.1,87.1,21.0,NE
2011-10-10,18.2,92.0,39.2,9.0,22.0,1.8,13.6,53.2,15.8,W
2011-10-11,21.2,76.0,56.2,4.6,28.0,0.0,13.2,52.6,20.1,NE
2011-10-12,13.6,88.0,47.9,8.8,71.0,1.1,10.9,79.7,20.0,E
2011-10-13,17.5,92.0,27.7,7.5,62.0,0.0,11.6,80.1,10.0,E
2011-10-14,21.4,86.0,47.5,8.5,41.0,0.0,12.5,69.8,17.1,SSW
2011-10-15,21.6,85.0,69.8,9.0,32.0,0.0,13.0,67.6,16.7,N
2011-10-16,14.8,82.0,43.6,7.4,52.0,4.0,10.2,67.5,19.8,SW
2011-10-17,22.2,88.0,59.0,6.6,29.0,1.1,13.7,60.5,17.3,NNE
2011-10-18,20.6,81.0,42.5,11.8,48.0,0.0,14.2,68.9,15.1,N
2011-10-19,27.6,71.0,36.0,11.2,21.0,0.0,19.1,43.1,11.5,NNW
2011-10-20,19.2,74.0,50.4,11.5,28.0,0.0,14.5,49.4,17.5,NNE
2011-10-21,21.4,69.0,41.8,8.2,21.0,0.0,13.3,45.8,13.4,WSW
2011-10-22,21.1,67.0,32.4,7.1,18.0,0.0,14.4,39.4,13.5,WNW
2011-10-23,28.3,63.0,71.6,10.9,15.0,1.8,19.9,33.1,24.3,NNW
2011-10-24,20.7,71.0,47.5,9.6,24.0,0.0,14.4,49.6,21.0,SSE
2011-10-25,22.3,75.0,39.6,4.4,37.0,0.0,11.9,61.0,15.4,ENE
2011-10-26,20.2,76.0,39.2,6.9,32.0,1.4,12.7,58.2,17.5,NNE
2011-10-27,21.5,86.0,37.4,6.9,29.0,1.8,14.5,55.6,16.4,NNE
2011-10-28,17.1,72.0,32.8,11.4,37.0,0.0,14.3,56.7,15.3,SSW
2011-10-29,25.4,82.0,39.2,6.8,28.0,0.0,15.3,58.6,13.9,ENE
2011-10-30,21.2,81.0,36.0,11.0,41.0,4.3,14.6,63.2,17.0,S
2011-10-31,30.3,79.0,50.0,10.6,14.0,0.0,19.6,47.7,17.0,N
2011-11-01,26.0,63.0,62.3,17.8,22.0,0.0,21.7,38.2,28.3,N
2011-11-02,26.5,69.0,38.5,16.1,21.0,0.0,20.3,43.2,15.4,WNW
2011-11-03,24.5,64.0,33.5,12.4,25.0,0.0,17.0,44.1,14.0,ENE
2011-11-04,24.4,83.0,31.0,9.7,26.0,0.0,15.6,53.9,12.9,ENE
2011-11-05,17.5,84.0,31.7,12.4,59.0,0.0,15.6,70.2,15.2,ENE
2011-11-06,27.7,84.0,31.0,12.8,39.0,0.4,18.3,67.2,9.4,SSE
2011-11-07,22.4,88.0,38.2,13.6,40.0,0.0,17.0,68.9,14.7,SSE
2011-11-08,21.6,88.0,38.9,11.7,56.0,0.4,14.9,79.9,15.3,ENE
2011-11-09,20.5,92.0,50.8,11.0,31.0,0.0,14.0,67.5,15.2,WSW
2011-11-10,22.8,84.0,36.0,7.7,22.0,0.7,15.2,59.2,14.5,W
2011-11-11,24.1,86.0,51.5,11.8,31.0,3.2,17.1,51.4,19.2,ENE
2011-11-12,30.2,70.0,34.9,17.5,23.0,0.0,22.7,45.0,12.7,ENE
2011-11-13,32.9,66.0,37.1,16.6,21.0,0.0,22.7,43.2,14.9,ENE
2011-11-14,31.2,67.0,37.1,17.4,19.0,1.1,22.3,44.2,16.3,ENE
2011-11-15,22.5,84.0,25.9,15.5,46.0,4.0,18.2,66.1,14.9,ENE
2011-11-16,34.8,87.0,25.9,13.8,36.0,0.0,20.2,69.2,9.8,S
2011-11-17,35.4,58.0,82.1,18.7,15.0,2.9,27.3,33.0,26.4,N
2011-11-18,30.0,59.0,59.8,17.8,15.0,0.4,24.4,35.4,22.2,N
2011-11-19,26.0,66.0,44.6,10.8,17.0,1.1,16.6,40.1,20.1,ENE
2011-11-20,26.0,60.0,54.7,13.2,12.0,0.0,20.1,28.4,20.1,W
2011-11-21,22.8,62.0,41.8,12.4,26.0,0.4,17.9,36.7,13.3,WNW
2011-11-22,26.4,72.0,42.1,14.4,28.0,0.0,19.7,48.0,11.9,N
2011-11-23,27.4,71.0,61.2,15.1,17.0,0.0,21.3,36.3,23.0,W
2011-11-24,28.7,48.0,60.5,15.3,12.0,1.8,22.1,25.8,21.0,W
2011-11-25,24.7,41.0,64.8,13.6,12.0,5.0,20.2,23.5,30.0,W
2011-11-26,25.3,61.0,59.4,10.7,17.0,1.8,17.7,34.1,22.0,NNE
2011-11-27,29.8,65.0,56.5,16.2,18.0,0.0,20.6,44.8,13.0,ENE
2011-11-28,26.5,78.0,41.8,14.3,16.0,0.0,19.4,41.0,15.9,E
2011-11-29,19.4,73.0,42.1,9.8,36.0,0.7,14.8,52.6,18.2,S
2011-11-30,26.6,76.0,38.2,7.4,19.0,2.9,15.7,54.3,16.7,NW
2011-12-01,25.7,81.0,39.6,10.2,40.0,0.0,16.6,69.5,18.0,ENE
2011-12-02,32.5,87.0,51.1,14.6,11.0,0.0,20.9,61.5,16.5,S
2011-12-03,30.2,81.0,51.5,13.4,20.0,0.0,19.3,58.7,13.8,NNE
2011-12-04,27.6,78.0,31.3,14.9,30.0,2.9,19.9,58.9,14.5,ENE
2011-12-05,30.0,72.0,31.7,16.0,30.0,1.1,20.1,53.3,12.3,E
2011-12-06,29.1,71.0,58.3,13.2,24.0,0.0,20.9,49.3,18.0,NNE
2011-12-07,21.5,66.0,59.0,14.4,40.0,1.8,18.6,53.4,22.9,SSW
2011-12-08,24.1,78.0,55.4,7.4,12.0,2.9,17.4,48.5,22.1,NNE
2011-12-09,32.2,76.0,64.4,16.0,19.0,0.0,23.0,55.0,26.0,N
2011-12-10,35.0,70.0,36.4,17.5,19.0,0.0,22.4,49.6,12.1,ENE
2011-12-11,25.5,64.0,38.9,15.1,20.0,2.9,19.2,38.7,18.4,WSW
2011-12-12,29.9,69.0,34.6,11.7,24.0,0.0,19.6,47.4,13.3,ESE
2011-12-13,27.0,68.0,61.6,12.1,24.0,0.7,20.9,38.2,24.8,NNE
2011-12-14,31.6,74.0,51.8,16.6,28.0,4.3,23.2,52.4,23.5,N
2011-12-15,28.7,78.0,47.9,16.4,24.0,4.0,22.8,55.6,22.2,NNE
2011-12-16,27.8,84.0,54.0,16.1,37.0,9.0,22.0,59.1,30.8,NNE
2011-12-17,19.2,68.0,37.8,18.3,64.0,11.9,18.6,66.8,23.0,NNE
2011-12-18,24.3,65.0,30.6,16.6,38.0,7.9,19.4,52.4,19.5,E
2011-12-19,30.7,66.0,40.7,13.8,24.0,0.7,20.2,48.5,16.2,NE
2011-12-20,28.6,71.0,31.0,15.9,24.0,0.0,20.8,50.6,13.5,SSW
2011-12-21,30.9,55.0,52.2,13.5,16.0,1.8,20.2,25.7,22.5,W
2011-12-22,20.9,52.0,52.2,10.0,15.0,1.8,15.0,31.5,20.3,WSW
2011-12-23,20.5,57.0,36.7,7.9,28.0,2.9,14.8,46.5,15.6,WSW
2011-12-24,32.4,76.0,33.5,10.8,7.0,0.7,21.5,36.1,14.3,WNW
2011-12-25,25.6,87.0,29.2,16.2,46.0,6.1,19.9,70.3,16.8,S
2011-12-26,22.6,89.0,32.4,15.8,62.0,7.6,18.3,77.8,18.8,SSE
2011-12-27,22.2,85.0,36.0,16.2,61.0,3.6,18.2,78.2,17.5,ESE
2011-12-28,33.3,84.0,50.0,17.2,23.0,0.0,21.4,63.8,14.2,SSE
2011-12-29,23.8,87.0,25.6,16.4,46.0,0.0,19.3,77.1,12.2,SSE
2011-12-30,35.5,87.0,44.3,14.0,19.0,1.1,23.0,50.9,15.8,WNW
2011-12-31,35.3,71.0,67.7,19.6,26.0,0.4,25.7,41.7,15.4,ENE
